Orange, MA

11:54 AM EDT on May 26, 2017 (GMT -0400)
Orange Municipal

Weather History for KORE - November, 2012

Change the Weather History Date:

Friday, November 23, 2012

  Actual Average Record
Temperature  
Mean Temperature 39 °F -  
Max Temperature 55 °F 43 °F 60 °F (1999)
Min Temperature 23 °F 25 °F 15 °F (2008)
Degree Days  
Heating Degree Days 26    
Moisture  
Dew Point 33 °F    
Average Humidity 83    
Maximum Humidity 100    
Minimum Humidity 45    
Precipitation  
Precipitation 0.00 in - - ()
Sea Level Pressure  
Sea Level Pressure 29.90 in    
Wind  
Wind Speed 2 mph (South)    
Max Wind Speed 13 mph    
Max Gust Speed 18 mph    
Visibility 7 miles    
Events Fog , Rain    
Averages and records for this station are not official NWS values.
T = Trace of Precipitation, MM = Missing Value Source: NWS Daily Summary

Daily Weather History Graph

Daily Weather History Graph

Search for Another Location

Airport or City:

Trip Planner

Search our weather history database for the weather conditions in past years. The results will help you decide how hot, cold, wet, or windy it might be!

Date:

Astronomy

Nov. 23, 2012 Rise Set
Actual Time 6:50 AM EST 4:20 PM EST
Civil Twilight 6:19 AM EST 4:51 PM EST
Nautical Twilight 5:45 AM EST 5:25 PM EST
Astronomical Twilight 5:11 AM EST 5:59 PM EST
Moon 1:38 PM EST (11/23) 2:01 AM EST (11/23)
Length of Visible Light 10h 31m
Length of Day
9h 29m
Waxing Gibbous, 79% of the Moon is Illuminated
Nov 23
Waxing Gibbous
Nov 28
Full
Dec 6
Last Quarter
Dec 13
New
Dec 20
First Quarter

Hourly Weather History & Observations

Time (EST) Temp. Windchill Dew Point Humidity Pressure Visibility Wind Dir Wind Speed Gust Speed Precip Events Conditions
12:52 AM 26.1 °F - 24.1 °F 92% 30.13 in 6.0 mi Calm Calm - N/A   Clear
1:52 AM 25.0 °F - 23.0 °F 92% 30.12 in 7.0 mi Calm Calm - N/A   Clear
2:52 AM 25.0 °F - 23.0 °F 92% 30.10 in 7.0 mi Calm Calm - N/A   Clear
3:52 AM 25.0 °F - 23.0 °F 92% 30.08 in 7.0 mi Calm Calm - N/A   Clear
4:10 AM 24.8 °F - 23.0 °F 93% 30.07 in 5.0 mi Calm Calm - N/A   Scattered Clouds
4:19 AM 23.0 °F - 21.2 °F 93% 30.07 in 5.0 mi Calm Calm - N/A   Mostly Cloudy
4:52 AM 24.1 °F - 21.9 °F 91% 30.08 in 8.0 mi Calm Calm - N/A   Overcast
5:15 AM 26.6 °F - 24.8 °F 93% 30.05 in 7.0 mi Calm Calm - N/A   Overcast
5:52 AM 26.1 °F - 25.0 °F 96% 30.06 in 7.0 mi Calm Calm - N/A   Overcast
6:40 AM 26.6 °F - 26.6 °F 100% 30.03 in 1.8 mi Calm Calm - N/A   Overcast
6:44 AM 26.6 °F - 26.6 °F 100% 30.03 in 1.0 mi Calm Calm - N/A   Overcast
6:52 AM 27.0 °F - 26.1 °F 96% 30.04 in 0.8 mi Calm Calm - N/A   Overcast
7:52 AM 28.9 °F - 28.0 °F 96% 30.04 in 0.2 mi Calm Calm - N/A Fog Light Freezing Fog
8:52 AM 30.9 °F - 30.0 °F 96% 30.01 in 0.2 mi Calm Calm - N/A Fog Light Freezing Fog
9:52 AM 34.0 °F - 34.0 °F 100% 30.00 in 0.2 mi Calm Calm - N/A Fog Fog
10:44 AM 39.2 °F - 37.4 °F 93% 29.93 in 1.2 mi Calm Calm - N/A   Mostly Cloudy
10:47 AM 39.2 °F - 37.4 °F 93% 29.93 in 2.5 mi Calm Calm - N/A   Mostly Cloudy
10:52 AM 39.0 °F - 37.9 °F 96% 29.94 in 6.0 mi Calm Calm - N/A   Scattered Clouds
11:52 AM 52.0 °F - 36.0 °F 54% 29.88 in 10.0 mi South 11.5 mph - N/A   Clear
12:52 PM 55.0 °F - 34.0 °F 45% 29.85 in 10.0 mi SSE 11.5 mph 17.3 mph N/A   Clear
1:52 PM 55.0 °F - 34.0 °F 45% 29.82 in 10.0 mi SSE 10.4 mph - N/A   Partly Cloudy
2:52 PM 55.0 °F - 35.1 °F 47% 29.78 in 10.0 mi South 12.7 mph 18.4 mph N/A   Clear
3:52 PM 53.1 °F - 35.1 °F 50% 29.77 in 10.0 mi South 8.1 mph - N/A   Clear
4:52 PM 48.9 °F - 37.0 °F 64% 29.77 in 10.0 mi SSW 9.2 mph - N/A   Clear
5:52 PM 46.9 °F - 37.0 °F 68% 29.75 in 10.0 mi South 8.1 mph - N/A   Clear
6:52 PM 48.0 °F - 37.9 °F 68% 29.74 in 10.0 mi South 10.4 mph - N/A   Overcast
7:52 PM 48.0 °F - 41.0 °F 77% 29.73 in 10.0 mi South 11.5 mph - N/A   Overcast
8:30 PM 48.2 °F - 42.8 °F 82% 29.71 in 10.0 mi South 8.1 mph 17.3 mph N/A   Overcast
8:52 PM 46.9 °F - 42.1 °F 83% 29.72 in 10.0 mi South 9.2 mph - N/A   Overcast
9:52 PM 46.9 °F - 42.1 °F 83% 29.69 in 10.0 mi South 9.2 mph - N/A   Overcast
10:52 PM 46.0 °F 42.5 °F 43.0 °F 89% 29.67 in 9.0 mi South 6.9 mph - 0.00 in Rain Light Rain
11:52 PM 45.0 °F - 43.0 °F 93% 29.63 in 9.0 mi Calm Calm - 0.00 in   Overcast
11:59 PM 44.6 °F 43.1 °F 42.8 °F 93% 29.62 in 9.0 mi South 3.5 mph - N/A   Overcast